Location: Fours
(44.3167°N, 6.7000°E)
Time: 17:25:42
(UTC+00:00)

SAOCOM 1-A - Visible Passes

Search period start: 11 August 2022 00:00
Search period end: 21 August 2022 00:00
Orbit: 621 x 623 km, 97.9° (Epoch: 11 August)

Date Brightness Start Highest point End Pass type
(mag) Time Alt. Az. Time Alt. Az. Time Alt. Az.
12 Aug ? 19:18:07 10° NNW 19:20:37 15° WNW 19:23:07 10° W visible
13 Aug ? 19:37:52 10° NW 19:38:25 10° WNW 19:38:57 10° WNW visible
14 Aug ? 03:23:09 10° ENE 03:23:39 10° ENE 03:24:09 10° NE visible
15 Aug ? 03:38:57 10° E 03:41:26 15° ENE 03:43:56 10° NNE visible
16 Aug ? 03:55:57 10° ESE 03:59:17 22° ENE 04:02:37 10° NNE visible
17 Aug ? 19:11:51 10° NNW 19:14:40 17° WNW 19:17:31 10° WSW visible
18 Aug ? 19:30:56 10° NW 19:32:29 12° WNW 19:34:02 10° W visible
20 Aug ? 03:33:25 10° E 03:35:30 13° ENE 03:37:35 10° NNE visible
